Location: Abundant Grace Fellowship
(35.0349°N, 90.0924°W)
Time: 21:31:27
(UTC+00:00)

Meteor 2-8 Rocket - Pass Details

Date: 18 January 2026
Orbit: 937 x 957 km, 82.5° (Epoch: 10 February)

Event Time Altitude Azimuth Distance (km) Brightness Sun altitude
Rises 00:50:11 0° 352° (N) 3,636 7.5 -19.5°
Reaches altitude 10° 00:52:41 10° 352° (N) 2,689 6.8 -20.0°
Maximum altitude 00:58:51 85° 265° (W) 964 4.4 -21.2°
Drops below altitude 10° 01:04:59 10° 177° (S) 2,676 6.9 -22.4°
Sets 01:07:28 0° 177° (S) 3,618 7.6 -22.9°
